Location: *
(46.0770°N, 1.6444°E)
Time: 14:49:57
(UTC+00:00)

Meteor 1-24 Rocket - Pass Details

Date: 16 September 2019
Orbit: 791 x 926 km, 81.2° (Epoch: 16 October)

Event Time Altitude Azimuth Distance (km) Brightness Sun altitude
Rises 19:48:46 0° 355° (N) 3,431 7.3 -18.4°
Reaches altitude 10° 19:51:21 10° 4° (N) 2,512 6.4 -18.8°
Maximum altitude 19:56:39 38° 71° (ENE) 1,332 4.4 -19.7°
Enters shadow 19:57:47 35° 96° (E) 1,413 4.3 -19.8°
